This is the latest recevied weather packets stored in our database for station/object WA1OUI. If no packets are shown the sender has not sent any weather packets the latest 10 day(s).
| Time | Temp. | Humidity | Pressure | Rain* | Wind** | Luminosity | Snow |
|---|---|---|---|---|---|---|---|
| 1777766960 | 10.56° C | 55% | 1009.1 hPa | 0 mm | - | 0 W/m² | - |
| 1777766657 | 10.56° C | 53% | 1009 hPa | 0 mm | - | 0 W/m² | - |
| 1777766354 | 10.56° C | 58% | 1008.9 hPa | 0 mm | - | 1 W/m² | - |
| 1777766051 | 11.11° C | 55% | 1008.8 hPa | 0 mm | - | 1 W/m² | - |
| 1777765749 | 11.11° C | 59% | 1008.6 hPa | 0 mm | - | 2 W/m² | - |
| 1777765445 | 11.11° C | 55% | 1008.7 hPa | 0 mm | - | 3 W/m² | - |
| 1777765142 | 11.11° C | 52% | 1008.8 hPa | 0 mm | - | 5 W/m² | - |
| 1777764837 | 11.11° C | 54% | 1008.9 hPa | 0 mm | - | 5 W/m² | - |
| 1777764535 | 11.67° C | 57% | 1008.6 hPa | 0 mm | - | 7 W/m² | - |
| 1777764231 | 11.67° C | 59% | 1008.6 hPa | 0 mm | - | 9 W/m² | - |
| 1777763928 | 11.67° C | 58% | 1008.6 hPa | 0 mm | - | 9 W/m² | - |
| 1777763626 | 11.67° C | 56% | 1008.7 hPa | 0 mm | - | 9 W/m² | - |
| 1777763324 | 11.67° C | 54% | 1008.6 hPa | 0 mm | - | 8 W/m² | - |
| 1777763022 | 12.22° C | 53% | 1008.4 hPa | 0 mm | - | 9 W/m² | - |
| 1777762718 | 12.22° C | 54% | 1008.6 hPa | 0 mm | - | 11 W/m² | - |
| 1777762414 | 12.22° C | 50% | 1008.6 hPa | 0 mm | - | 11 W/m² | - |
| 1777762112 | 12.22° C | 54% | 1008.5 hPa | 0 mm | - | 11 W/m² | - |
| 1777761808 | 12.22° C | 50% | 1008.4 hPa | 0 mm | - | 13 W/m² | - |
| 1777761505 | 12.22° C | 50% | 1008.4 hPa | 0 mm | - | 21 W/m² | - |
| 1777761203 | 12.78° C | 52% | 1008.2 hPa | 0 mm | - | 26 W/m² | - |
| 1777760901 | 12.78° C | 52% | 1008.4 hPa | 0 mm | - | 24 W/m² | - |
| 1777760598 | 12.78° C | 48% | 1008.3 hPa | 0 mm | - | 30 W/m² | - |
| 1777760294 | 12.78° C | 47% | 1008.2 hPa | 0 mm | - | 32 W/m² | - |
| 1777759990 | 12.78° C | 48% | 1008.2 hPa | 0 mm | - | 30 W/m² | - |
| 1777759688 | 12.78° C | 47% | 1008.1 hPa | 0 mm | - | 31 W/m² | - |
* Rain latest hour (hover to see other rain measurements)
** Current wind speed in m/s (hover to see current wind gust speed)